Home > Time Zones > World Clock > Weather > Norway > Alta > Past weeks

Flag for Norway Weather past 2 weeks in Alta, Norway

Now
20 °F

Cold.


Feels Like: 15 °F
Forecast: 14 / 18 °F
Wind: 3 mph from East

Location: Alta Lufthavn

Current Time: Jan 29, 2015 at 1:59:26 PM

Latest Report: Jan 29, 2015 at 1:00 PM


Visibility: N/A

Pressure: 29.50 "Hg

Humidity: 67%

Dew point: 11 °F

Location of AltaLocation

Historic Weather in Alta — Graph

°F

Alta temperature yesterday

Maximum temperature yesterday: 26 °F (at 9:00 PM)
Minimum temperature yesterday: 18 °F (at 3:00 PM)
Average temperature yesterday: 22 °F

Past Weeks' High & Low Weather Summary

 TemperatureHumidityPressure
High32 °F (Jan 18, 1:00 AM)92% (Jan 17, 11:00 AM)30.42 "Hg (Jan 17, 11:00 AM)
Low-5 °F (Jan 20, 7:00 AM)42% (Jan 23, 7:00 PM)28.94 "Hg (Jan 16, 4:00 PM)
Average14 °F72%29.67 "Hg
* Reported Jan 14 12:00 Noon — Jan 29 12:00 Noon, Alta, Weather by CustomWeather, © 2014

Note: Actual official high and low records may vary slightly from our data, if they occured in-between our weather recording intervals... More about our weather records

Advertising

Alta weather history for previous 24 hours

 ConditionsComfort  
Time TempWeatherWind HumidityBarometerVisibility
12:00 PM
Jan 29
20 °FCold.5 mph67%29.50 "HgN/A
11:00 AM20 °FCold.6 mph67%29.50 "HgN/A
10:00 AM20 °FCold.9 mph71%29.50 "HgN/A
9:00 AM21 °FCold.12 mph70%29.47 "HgN/A
8:00 AM21 °FCold.5 mph66%29.47 "HgN/A
7:00 AM22 °FCold.6 mph68%29.44 "HgN/A
6:00 AM22 °FCold.9 mph71%29.44 "HgN/A
5:00 AM23 °FCold.10 mph70%29.41 "HgN/A
3:00 AM23 °FCold.10 mph68%29.38 "HgN/A
2:00 AM24 °FCold.10 mph68%29.35 "HgN/A
1:00 AM25 °FCold.12 mph72%29.32 "HgN/A
12:00 AM25 °FChilly.9 mph73%29.29 "HgN/A
11:00 PM
Jan 28
25 °FChilly.12 mph74%29.26 "HgN/A
10:00 PM26 °FChilly.9 mph76%29.26 "HgN/A
9:00 PM26 °FChilly.8 mph74%29.23 "HgN/A
8:00 PM24 °FCold.2 mph78%29.21 "HgN/A
7:00 PM20 °FCold.1 mph79%29.18 "HgN/A
6:00 PM20 °FCold.1 mph78%29.18 "HgN/A
5:00 PM20 °FCold.2 mph77%29.15 "HgN/A
4:00 PM19 °FCold.5 mph77%29.12 "HgN/A
3:00 PM18 °FCold.6 mph79%29.12 "HgN/A
2:00 PM20 °FCold.6 mph77%29.09 "HgN/A
1:00 PM21 °FCold.5 mph76%29.06 "HgN/A
Weather by CustomWeather, © 2014

See weather overviewHow to use our weather pages